Location: Maiden
(35.5760°N, 81.2120°W)
Time: 10:30:15
(UTC-04:00)

Centaur D-1AR AC-36 - Pass Details

Date: 14 June 2018
Orbit: 527 x 36377 km, 22.1° (Epoch: 18 September)

Event Time Altitude Azimuth Distance (km) Brightness Sun altitude
Rises 21:23:41 0° 265° (W) 18,264 9.8 -8.0°
Reaches altitude 10° 21:52:17 10° 261° (W) 9,910 8.2 -12.5°
Maximum altitude 22:12:22 33° 205° (SSW) 2,406 4.3 -15.5°
Enters shadow 22:15:42 21° 156° (SSE) 2,148 3.7 -16.0°
